This demonstration page uses our WeatherBlox Daily Observations layout. Learn more.

Hourly Observations for February 17, 2019

Temp ( °F °C ) Dew Point ( °F °C ) Humidity (%) Winds ( mph kmh ) Pressure ( in mb ) Visibility ( mi km ) Precip ( " mm )
12:15 am 00:15 Cloudy with Light Snow 12 -11.1 11 -11.7 95 95 Calm 29.95 1014 1.75 2.816345 0 0
12:35 am 00:35 Cloudy with Light Snow 12 -11.3 11 -11.8 96 96 NNW 5 7 29.96 1014 4 6.43736 0 0
12:55 am 00:55 Cloudy with Light Snow 12 -11.3 11 -11.8 96 96 NNW 5 7 29.96 1014 7 11.26538 0 0
1:15 am 01:15 Cloudy with Light Snow 10 -12.1 9 -12.6 96 96 NNW 5 7 29.97 1015 7 11.26538 0 0
1:35 am 01:35 Cloudy with Light Snow 10 -12.2 9 -12.7 96 96 NNW 6 9 29.98 1015 7 11.26538 0 0
1:55 am 01:55 Mostly Cloudy with Scattered Snow Showers 9 -12.8 8 -13.3 96 96 NW 5 7 29.98 1015 7 11.26538 0 0
2:15 am 02:15 Cloudy with Light Snow 9 -12.6 8 -13.1 96 96 NNW 6 9 29.98 1015 10 16.0934 0 0
2:35 am 02:35 Mostly Cloudy with Scattered Snow Showers 8 -13.4 7 -13.9 96 96 NNW 8 13 29.98 1015 4 6.43736 0 0
2:55 am 02:55 Partly Cloudy with Scattered Snow Showers 8 -13.3 7 -13.9 95 95 NNW 7 11 29.98 1015 7 11.26538 0 0
3:15 am 03:15 Partly Cloudy 7 -13.9 6 -14.6 95 95 NNW 6 9 29.98 1015 7 11.26538 0 0
3:35 am 03:35 Cloudy with Light Snow 6 -14.5 5 -15.2 94 94 NW 6 9 30 1016 7 11.26538 0 0
3:55 am 03:55 Cloudy with Light Snow 5 -15.1 3 -16 93 93 WNW 5 7 30 1016 7 11.26538 0 0
4:15 am 04:15 Cloudy 9 -12.7 8 -13.2 96 96 W 6 9 29.99 1016 10 16.0934 0 0
4:35 am 04:35 Cloudy 11 -11.5 10 -12.1 95 95 WNW 5 7 29.98 1015 10 16.0934 0 0
4:55 am 04:55 Cloudy 11 -11.4 10 -12 95 95 WNW 7 11 29.99 1015 10 16.0934 0 0
5:15 am 05:15 Mostly Cloudy 8 -13.1 7 -13.9 94 94 NW 7 11 30.02 1016 10 16.0934 0 0
5:35 am 05:35 Partly Cloudy 8 -13.5 7 -14.1 95 95 NW 7 11 30.03 1017 10 16.0934 0 0
5:55 am 05:55 Mostly Cloudy 6 -14.6 4 -15.5 93 93 NW 7 11 30.05 1018 10 16.0934 0 0
6:15 am 06:15 Cloudy 12 -11 11 -11.5 96 96 NNW 12 19 30.02 1017 10 16.0934 0 0
6:35 am 06:35 Cloudy 13 -10.5 12 -11.2 95 95 NNW 14 22 30.03 1017 10 16.0934 0 0
6:55 am 06:55 Cloudy 14 -10.2 12 -11.2 92 92 NW 14 22 30.04 1017 10 16.0934 0 0
7:15 am 07:15 Cloudy 14 -10 11 -11.5 89 89 NNW 13 20 30.03 1017 10 16.0934 0 0
7:35 am 07:35 Cloudy 14 -10 11 -11.7 88 88 NW 12 19 30.05 1018 10 16.0934 0 0
7:55 am 07:55 Cloudy 14 -10 10 -12.1 85 85 NNW 13 20 30.05 1018 10 16.0934 0 0
8:15 am 08:15 Cloudy 14 -10.1 10 -12 86 86 NNW 10 17 30.06 1018 10 16.0934 0 0
8:35 am 08:35 Cloudy 14 -10.1 10 -12.2 85 85 NNW 15 24 30.08 1019 10 16.0934 0 0
8:55 am 08:55 Cloudy 14 -10 10 -12.1 85 85 NNW 15 24 30.08 1019 10 16.0934 0 0
9:15 am 09:15 Cloudy 14 -9.8 10 -12.1 83 83 NNW 15 24 30.09 1019 10 16.0934 0 0
9:35 am 09:35 Cloudy 15 -9.7 10 -12.2 82 82 NNW 15 24 30.1 1019 10 16.0934 0 0
9:55 am 09:55 Cloudy 15 -9.7 10 -12.2 82 82 NNW 13 20 30.11 1020 10 16.0934 0 0
10:15 am 10:15 Partly Cloudy 15 -9.7 10 -12.5 80 80 NNW 14 22 30.12 1020 10 16.0934 0 0
10:35 am 10:35 Sunny 15 -9.6 10 -12.5 80 80 NW 16 26 30.13 1020 7 11.26538 0 0
10:55 am 10:55 Sunny 15 -9.3 10 -12.3 79 79 NW 15 24 30.15 1021 10 16.0934 0 0
11:15 am 11:15 Sunny 15 -9.2 10 -12.4 78 78 NW 16 26 30.15 1021 7 11.26538 0 0
11:35 am 11:35 Sunny 16 -9 10 -12.1 78 78 NW 16 26 30.16 1021 10 16.0934 0 0
11:55 am 11:55 Sunny 16 -8.7 10 -12 77 77 NW 16 26 30.16 1021 10 16.0934 0 0
12:15 pm 12:15 Sunny 17 -8.5 11 -11.9 77 77 NW 16 26 30.18 1022 10 16.0934 0 0
12:35 pm 12:35 Sunny 17 -8.3 11 -11.8 76 76 NW 17 28 30.17 1022 10 16.0934 0 0
12:55 pm 12:55 Partly Cloudy 17 -8.2 11 -11.7 76 76 NW 21 33 30.17 1022 7 11.26538 0 0
1:15 pm 13:15 Partly Cloudy 18 -8 11 -11.4 77 77 NW 17 28 30.16 1021 10 16.0934 0 0
1:35 pm 13:35 Partly Cloudy 18 -7.8 11 -11.5 75 75 NW 16 26 30.16 1021 10 16.0934 0 0
1:55 pm 13:55 Cloudy 18 -7.6 12 -11.1 76 76 NNW 17 28 30.15 1021 7 11.26538 0 0
2:15 pm 14:15 Cloudy with Light Snow 18 -7.6 12 -11.1 76 76 NNW 17 28 30.16 1021 7 11.26538 0 0
2:35 pm 14:35 Cloudy with Light Snow 19 -7.5 12 -11.3 75 75 NNW 16 26 30.16 1021 7 11.26538 0 0
2:55 pm 14:55 Mostly Cloudy with Scattered Snow Showers 19 -7.2 12 -11.1 74 74 NNW 16 26 30.17 1022 10 16.0934 0 0
3:15 pm 15:15 Cloudy 19 -7.4 11 -11.4 73 73 NNW 16 26 30.18 1022 10 16.0934 0 0
3:35 pm 15:35 Cloudy 18 -7.7 11 -11.8 73 73 NW 13 20 30.2 1023 10 16.0934 0 0
3:55 pm 15:55 Cloudy with Light Snow 18 -7.6 11 -11.6 73 73 NW 16 26 30.21 1023 10 16.0934 0 0
4:15 pm 16:15 Cloudy with Light Snow 19 -7.5 12 -11.3 75 75 NNW 15 24 30.21 1023 7 11.26538 0 0
4:35 pm 16:35 Partly Cloudy 18 -8 10 -12.2 72 72 NNW 12 19 30.22 1023 10 16.0934 0 0
4:55 pm 16:55 Sunny 17 -8.3 10 -12.5 72 72 NNW 15 24 30.23 1024 10 16.0934 0 0
5:15 pm 17:15 Sunny 17 -8.5 10 -12.5 73 73 NNW 14 22 30.24 1024 10 16.0934 0 0
5:35 pm 17:35 Sunny 16 -9 9 -12.9 74 74 NNW 12 19 30.25 1025 10 16.0934 0 0
6:15 pm 18:15 Clear 13 -10.3 8 -13.6 77 77 NNW 9 15 30.29 1026 10 16.0934 0 0
6:35 pm 18:35 Clear 12 -11.2 6 -14.2 79 79 NNW 9 15 30.31 1026 10 16.0934 0 0
6:55 pm 18:55 Clear 11 -11.5 6 -14.5 79 79 NNW 8 13 30.33 1027 10 16.0934 0 0
7:15 pm 19:15 Clear 10 -12 5 -15 79 79 NW 7 11 30.36 1028 10 16.0934 0 0
7:35 pm 19:35 Clear 7 -13.9 2 -16.6 80 80 NW 8 13 30.39 1029 10 16.0934 0 0
7:55 pm 19:55 Clear 6 -14.3 2 -16.8 82 82 NW 8 13 30.4 1029 10 16.0934 0 0
8:15 pm 20:15 Clear 8 -13.5 4 -15.7 84 84 NW 10 17 30.4 1030 10 16.0934 0 0
8:35 pm 20:35 Clear 8 -13.5 3 -16.1 81 81 NNW 9 15 30.41 1030 10 16.0934 0 0
8:55 pm 20:55 Clear 8 -13.3 3 -16 80 80 NNW 12 19 30.42 1030 10 16.0934 0 0
9:15 pm 21:15 Clear 8 -13.3 3 -16.1 80 80 NNW 10 17 30.43 1030 10 16.0934 0 0
9:35 pm 21:35 Clear 8 -13.5 3 -16.1 81 81 NNW 12 19 30.43 1031 10 16.0934 0 0
9:55 pm 21:55 Clear 7 -13.8 2 -16.4 81 81 NW 13 20 30.46 1031 10 16.0934 0 0
10:15 pm 22:15 Clear 7 -14.1 2 -16.6 82 82 NW 9 15 30.47 1032 10 16.0934 0 0
10:35 pm 22:35 Clear 5 -15.1 0 -17.6 81 81 NW 12 19 30.49 1033 10 16.0934 0 0
10:55 pm 22:55 Clear 4 -15.3 0 -17.7 82 82 NW 12 19 30.49 1033 10 16.0934 0 0
11:15 pm 23:15 Clear 4 -15.3 0 -17.6 83 83 NW 10 17 30.49 1033 10 16.0934 0 0
11:35 pm 23:35 Clear 5 -15.1 1 -17.5 82 82 NNW 12 19 30.49 1033 10 16.0934 0 0
11:55 pm 23:55 Clear 5 -15 1 -17.5 81 81 NNW 12 19 30.5 1033 10 16.0934 0 0

Powered by AerisWeather